| time (UTC) | temp F | wind direction | speed MPH | gust MPH | rain 1hr in | rain 24hr in | rain mn in | humidity % | barometer mb |
| 20260904124503 | 90 | 9 | 4.0 | 10.0 | 0.00 | 0.00 | 0.00 | 52 | 1021.3 |
| 20260904123152 | 90 | 46 | 5.0 | 14.0 | 0.00 | 0.00 | 0.00 | 53 | 1021.3 |
| 20260904120144 | 90 | 68 | 7.0 | 13.0 | 0.00 | 0.00 | 0.00 | 51 | 1021.4 |
| 20260904114543 | 90 | 57 | 8.0 | 11.0 | 0.00 | 0.00 | 0.00 | 52 | 1021.5 |
| 20260904113053 | 89 | 133 | 6.0 | 12.0 | 0.00 | 0.00 | 0.00 | 53 | 1021.5 |
| 20260904111639 | 89 | 121 | 8.0 | 12.0 | 0.00 | 0.00 | 0.00 | 54 | 1021.6 |
| 20260904110140 | 89 | 37 | 7.0 | 13.0 | 0.00 | 0.00 | 0.00 | 54 | 1021.8 |
| 20260904104658 | 89 | 138 | 5.0 | 11.0 | 0.00 | 0.00 | 0.00 | 54 | 1021.9 |
| 20260904103012 | 88 | 102 | 5.0 | 10.0 | 0.00 | 0.00 | 0.00 | 56 | 1022.1 |
| 20260904101518 | 88 | 82 | 6.0 | 10.0 | 0.00 | 0.00 | 0.00 | 57 | 1022.0 |
| 20260904100007 | 88 | 86 | 3.0 | 8.0 | 0.00 | 0.00 | 0.00 | 54 | 1022.1 |
| 20260904094558 | 87 | 76 | 4.0 | 8.0 | 0.00 | 0.00 | 0.00 | 54 | 1021.9 |
| 20260904093111 | 85 | 125 | 6.0 | 10.0 | 0.00 | 0.00 | 0.00 | 52 | 1022.0 |
| 20260904091625 | 85 | 124 | 6.0 | 9.0 | 0.00 | 0.00 | 0.00 | 52 | 1021.9 |
| 20260904090115 | 85 | 126 | 4.0 | 8.0 | 0.00 | 0.00 | 0.00 | 51 | 1021.9 |
| 20260904084616 | 84 | 80 | 3.0 | 7.0 | 0.00 | 0.00 | 0.00 | 53 | 1021.8 |
| 20260904083130 | 83 | 72 | 4.0 | 7.0 | 0.00 | 0.00 | 0.00 | 56 | 1021.6 |
| 20260904081636 | 83 | 135 | 3.0 | 6.0 | 0.00 | 0.00 | 0.00 | 55 | 1021.5 |
| 20260904080130 | 84 | 115 | 1.0 | 4.0 | 0.00 | 0.00 | 0.00 | 49 | 1021.2 |
| 20260904074645 | 81 | 56 | 0.0 | 2.0 | 0.00 | 0.00 | 0.00 | 53 | 1021.2 |
| 20260904071516 | 77 | 79 | 1.0 | 2.0 | 0.00 | 0.00 | 0.00 | 62 | 1021.3 |
| 20260904070024 | 75 | 293 | 0.0 | 2.0 | 0.00 | 0.00 | 0.00 | 68 | 1021.3 |
| 20260904064527 | 72 | 293 | 0.0 | 1.0 | 0.00 | 0.00 | 0.00 | 74 | 1021.3 |
| 20260904063045 | 70 | 293 | 1.0 | 4.0 | 0.00 | 0.00 | 0.00 | 77 | 1021.3 |
| 20260904061556 | 68 | 263 | 2.0 | 4.0 | 0.00 | 0.00 | 0.00 | 80 | 1021.2 |
| 20260904060126 | 67 | 274 | 2.0 | 4.0 | 0.00 | 0.00 | 0.00 | 82 | 1021.3 |
| 20260904054653 | 67 | 272 | 1.0 | 4.0 | 0.00 | 0.00 | 0.00 | 82 | 1021.3 |
| 20260904053046 | 67 | 291 | 0.0 | 3.0 | 0.00 | 0.00 | 0.00 | 83 | 1021.2 |
| 20260904051542 | 67 | 280 | 1.0 | 4.0 | 0.00 | 0.00 | 0.00 | 84 | 1021.2 |
| 20260904050030 | 67 | 309 | 2.0 | 5.0 | 0.00 | 0.00 | 0.00 | 85 | 1021.3 |
| 20260904044655 | 67 | 279 | 2.0 | 4.0 | 0.00 | 0.00 | 0.00 | 86 | 1021.5 |
| 20260904043009 | 67 | 271 | 3.0 | 4.0 | 0.00 | 0.00 | 0.00 | 87 | 1021.5 |
| 20260904041537 | 68 | 281 | 1.0 | 3.0 | 0.00 | 0.00 | 0.00 | 87 | 1021.6 |
| 20260904040012 | 68 | 252 | 0.0 | 2.0 | 0.00 | 0.00 | 0.00 | 87 | 1021.6 |
| 20260904034522 | 68 | 271 | 1.0 | 2.0 | 0.00 | 0.00 | 0.00 | 86 | 1021.6 |
| 20260904033052 | 68 | 253 | 1.0 | 3.0 | 0.00 | 0.00 | 0.00 | 86 | 1021.7 |
| 20260904031546 | 68 | 259 | 0.0 | 3.0 | 0.00 | 0.00 | 0.00 | 86 | 1021.7 |
| 20260904030038 | 69 | 270 | 1.0 | 2.0 | 0.00 | 0.00 | 0.00 | 86 | 1021.9 |
| 20260904024617 | 69 | 258 | 0.0 | 2.0 | 0.00 | 0.00 | 0.00 | 86 | 1021.9 |
| 20260904023131 | 69 | 257 | 0.0 | 2.0 | 0.00 | 0.00 | 0.00 | 87 | 1022.0 |
| 20260904021632 | 69 | 258 | 1.0 | 3.0 | 0.00 | 0.00 | 0.00 | 87 | 1022.1 |
| 20260904020124 | 69 | 268 | 0.0 | 3.0 | 0.00 | 0.00 | 0.00 | 87 | 1022.2 |
| 20260904014634 | 69 | 275 | 1.0 | 3.0 | 0.00 | 0.00 | 0.00 | 86 | 1022.3 |
| 20260904013027 | 69 | 278 | 0.0 | 3.0 | 0.00 | 0.00 | 0.00 | 86 | 1022.6 |
| 20260904011530 | 70 | 264 | 2.0 | 3.0 | 0.00 | 0.00 | 0.00 | 85 | 1022.6 |
| 20260904010036 | 70 | 274 | 1.0 | 4.0 | 0.00 | 0.00 | 0.00 | 85 | 1022.7 |
| 20260904004557 | 70 | 270 | 1.0 | 3.0 | 0.00 | 0.00 | 0.00 | 84 | 1022.8 |
| 20260904003110 | 70 | 274 | 2.0 | 3.0 | 0.00 | 0.00 | 0.00 | 84 | 1022.9 |
| 20260904001633 | 71 | 264 | 3.0 | 4.0 | 0.00 | 0.00 | 0.00 | 83 | 1022.9 |
| 20260904000100 | 71 | 283 | 0.0 | 3.0 | 0.00 | 0.00 | 0.00 | 83 | 1022.9 |
| 20260903234542 | 72 | 236 | 1.0 | 4.0 | 0.00 | 0.00 | 0.00 | 82 | 1022.9 |
| 20260903233106 | 72 | 264 | 2.0 | 3.0 | 0.00 | 0.00 | 0.00 | 81 | 1022.9 |
| 20260903231517 | 74 | 308 | 0.0 | 2.0 | 0.00 | 0.00 | 0.00 | 79 | 1022.7 |
| 20260903230037 | 75 | 38 | 0.0 | 2.0 | 0.00 | 0.00 | 0.00 | 78 | 1022.7 |
| 20260903224503 | 76 | 250 | 0.0 | 3.0 | 0.00 | 0.00 | 0.00 | 75 | 1022.5 |
| 20260903223041 | 77 | 237 | 3.0 | 8.0 | 0.00 | 0.00 | 0.00 | 75 | 1022.5 |
| 20260903221532 | 77 | 235 | 2.0 | 4.0 | 0.00 | 0.00 | 0.00 | 76 | 1022.5 |
| 20260903220004 | 76 | 233 | 3.0 | 7.0 | 0.00 | 0.00 | 0.00 | 78 | 1022.5 |
| 20260903214518 | 76 | 247 | 2.0 | 4.0 | 0.00 | 0.00 | 0.00 | 80 | 1022.6 |
| 20260903213015 | 75 | 248 | 5.0 | 7.0 | 0.00 | 0.00 | 0.00 | 81 | 1022.6 |
| 20260903211533 | 74 | 260 | 5.0 | 7.0 | 0.00 | 0.00 | 0.00 | 83 | 1022.8 |
| 20260903204629 | 74 | 284 | 0.0 | 2.0 | 0.00 | 0.00 | 0.00 | 83 | 1022.8 |
| 20260903203120 | 75 | 248 | 1.0 | 2.0 | 0.00 | 0.00 | 0.00 | 82 | 1022.8 |
| 20260903201642 | 75 | 242 | 1.0 | 3.0 | 0.00 | 0.00 | 0.00 | 83 | 1022.8 |
| 20260903194534 | 76 | 258 | 2.0 | 3.0 | 0.00 | 0.00 | 0.00 | 81 | 1022.5 |
| 20260903193050 | 76 | 275 | 2.0 | 4.0 | 0.00 | 0.00 | 0.00 | 80 | 1022.4 |
| 20260903191612 | 77 | 11 | 0.0 | 1.0 | 0.00 | 0.00 | 0.00 | 81 | 1022.4 |
| 20260903190054 | 78 | 135 | 0.0 | 3.0 | 0.00 | 0.00 | 0.00 | 80 | 1022.3 |
| 20260903184617 | 78 | 80 | 3.0 | 4.0 | 0.00 | 0.00 | 0.00 | 79 | 1022.3 |
| 20260903183025 | 79 | 79 | 1.0 | 5.0 | 0.00 | 0.00 | 0.00 | 78 | 1022.2 |
| 20260903181545 | 80 | 76 | 2.0 | 6.0 | 0.00 | 0.00 | 0.00 | 77 | 1022.3 |
| 20260903180048 | 80 | 45 | 4.0 | 8.0 | 0.00 | 0.00 | 0.00 | 75 | 1022.2 |
| 20260903174612 | 81 | 49 | 4.0 | 6.0 | 0.00 | 0.00 | 0.00 | 73 | 1022.2 |
| 20260903173134 | 82 | 56 | 3.0 | 8.0 | 0.00 | 0.00 | 0.00 | 72 | 1022.1 |
| 20260903171658 | 82 | 78 | 4.0 | 9.0 | 0.00 | 0.00 | 0.00 | 71 | 1022.1 |
| 20260903170153 | 82 | 50 | 5.0 | 11.0 | 0.00 | 0.00 | 0.00 | 71 | 1022.1 |
| 20260903163136 | 84 | 40 | 7.0 | 14.0 | 0.00 | 0.00 | 0.00 | 68 | 1022.0 |
| 20260903161604 | 84 | 29 | 9.0 | 15.0 | 0.00 | 0.00 | 0.00 | 68 | 1021.9 |
| 20260903160130 | 86 | 38 | 6.0 | 14.0 | 0.00 | 0.00 | 0.00 | 64 | 1022.0 |
| 20260903154654 | 87 | 94 | 4.0 | 10.0 | 0.00 | 0.00 | 0.00 | 60 | 1021.8 |
| 20260903151654 | 87 | 153 | 7.0 | 12.0 | 0.00 | 0.00 | 0.00 | 60 | 1022.1 |
| 20260903150148 | 87 | 94 | 5.0 | 14.0 | 0.00 | 0.00 | 0.00 | 60 | 1022.1 |
| 20260903144549 | 86 | 106 | 6.0 | 13.0 | 0.00 | 0.00 | 0.00 | 63 | 1022.2 |
| 20260903143134 | 86 | 61 | 8.0 | 12.0 | 0.00 | 0.00 | 0.00 | 63 | 1022.3 |
| 20260903141530 | 86 | 46 | 4.0 | 12.0 | 0.00 | 0.00 | 0.00 | 62 | 1022.5 |
| 20260903134520 | 86 | 61 | 6.0 | 13.0 | 0.00 | 0.00 | 0.00 | 63 | 1022.7 |
| 20260903133052 | 86 | 23 | 4.0 | 12.0 | 0.00 | 0.00 | 0.00 | 61 | 1022.9 |
| 20260903131541 | 86 | 36 | 2.0 | 13.0 | 0.00 | 0.00 | 0.00 | 61 | 1022.8 |
| 20260903130023 | 85 | 159 | 6.0 | 15.0 | 0.00 | 0.00 | 0.00 | 61 | 1023.0 |